Hourly Weather Sylhet

Today, 8 August, Saturday

Time Temperature Precipitation Wind Pressure Humidity
00:00 +28°C° 0 mm 2 mps 751 mmHg 93%
01:00 +28°C° 0 mm 2 mps 751 mmHg 94%
02:00 +28°C° 0 mm 2 mps 750 mmHg 94%
03:00 +28°C° 0 mm 1 mps 750 mmHg 94%
04:00 +28°C° 0 mm 2 mps 750 mmHg 94%
05:00 +28°C° 0 mm 2 mps 749 mmHg 94%
06:00 +28°C° 0 mm 2 mps 749 mmHg 94%
07:00 +29°C° 0 mm 2 mps 750 mmHg 89%
08:00 +30°C° 0 mm 2 mps 750 mmHg 83%
09:00 +32°C° 0 mm 2 mps 751 mmHg 78%
10:00 +32°C° 0.6 mm 2 mps 750 mmHg 76%
11:00 +34°C° 0.6 mm 3 mps 750 mmHg 73%
12:00 +35°C° 0.6 mm 3 mps 749 mmHg 70%
13:00 +35°C° 1.4 mm 3 mps 749 mmHg 72%
14:00 +35°C° 1.4 mm 3 mps 748 mmHg 73%
15:00 +34°C° 1.4 mm 3 mps 748 mmHg 75%
16:00 +33°C° 1 mm 3 mps 748 mmHg 79%
17:00 +33°C° 1 mm 3 mps 748 mmHg 83%
18:00 +31°C° 1 mm 2 mps 747 mmHg 87%
19:00 +30°C° 0.2 mm 2 mps 748 mmHg 88%
20:00 +29°C° 0.2 mm 2 mps 749 mmHg 89%
21:00 +29°C° 0.2 mm 2 mps 750 mmHg 90%
22:00 +28°C° 0.1 mm 2 mps 750 mmHg 91%
23:00 +28°C° 0.1 mm 1 mps 750 mmHg 91%

Tomorrow, 9 August, Sunday

Time Temperature Precipitation Wind Pressure Humidity
00:00 +28°C° 0.1 mm 1 mps 750 mmHg 91%
01:00 +28°C° 0 mm 1 mps 750 mmHg 91%
02:00 +28°C° 0 mm 1 mps 749 mmHg 92%
03:00 +28°C° 0 mm 1 mps 749 mmHg 92%
04:00 +28°C° 0.1 mm 1 mps 749 mmHg 93%
05:00 +28°C° 0.1 mm 1 mps 749 mmHg 93%
06:00 +28°C° 0.1 mm 1 mps 749 mmHg 94%
07:00 +28°C° 0.2 mm 2 mps 750 mmHg 92%
08:00 +29°C° 0.2 mm 2 mps 750 mmHg 91%
09:00 +29°C° 0.2 mm 2 mps 751 mmHg 89%
10:00 +30°C° 0.7 mm 2 mps 750 mmHg 86%
11:00 +31°C° 0.7 mm 2 mps 750 mmHg 83%
12:00 +32°C° 0.7 mm 2 mps 750 mmHg 80%
13:00 +32°C° 1.8 mm 2 mps 749 mmHg 80%
14:00 +32°C° 1.8 mm 2 mps 748 mmHg 80%
15:00 +32°C° 1.8 mm 2 mps 748 mmHg 81%
16:00 +31°C° 1.6 mm 2 mps 748 mmHg 84%
17:00 +31°C° 1.6 mm 2 mps 748 mmHg 87%
18:00 +30°C° 1.6 mm 2 mps 748 mmHg 90%
19:00 +30°C° 1.3 mm 2 mps 749 mmHg 91%
20:00 +29°C° 1.3 mm 2 mps 749 mmHg 91%
21:00 +29°C° 1.3 mm 2 mps 750 mmHg 92%
22:00 +29°C° 0.5 mm 2 mps 750 mmHg 92%
23:00 +29°C° 0.5 mm 2 mps 750 mmHg 92%

Day after tomorrow, 10 August, Monday

Time Temperature Precipitation Wind Pressure Humidity
00:00 +28°C° 0.5 mm 1 mps 750 mmHg 92%
01:00 +28°C° 0.3 mm 1 mps 750 mmHg 93%
02:00 +28°C° 0.3 mm 1 mps 749 mmHg 93%
03:00 +28°C° 0.3 mm 1 mps 749 mmHg 94%
04:00 +28°C° 0.6 mm 1 mps 749 mmHg 93%
05:00 +28°C° 0.6 mm 1 mps 750 mmHg 93%
06:00 +28°C° 0.6 mm 2 mps 750 mmHg 92%
07:00 +29°C° 0.3 mm 2 mps 750 mmHg 89%
08:00 +30°C° 0.3 mm 2 mps 751 mmHg 85%
09:00 +31°C° 0.3 mm 2 mps 751 mmHg 82%
10:00 +32°C° 0.6 mm 1 mps 751 mmHg 78%
11:00 +33°C° 0.6 mm 1 mps 750 mmHg 74%
12:00 +33°C° 0.6 mm 1 mps 750 mmHg 70%
13:00 +34°C° 1.1 mm 1 mps 749 mmHg 70%
14:00 +34°C° 1.1 mm 1 mps 749 mmHg 69%
15:00 +32°C° 1.1 mm 0 mps 748 mmHg 69%
16:00 +33°C° 0.4 mm 1 mps 748 mmHg 73%
17:00 +32°C° 0.4 mm 1 mps 748 mmHg 78%
18:00 +32°C° 0.4 mm 2 mps 748 mmHg 82%
19:00 +31°C° 0.6 mm 2 mps 749 mmHg 85%
20:00 +30°C° 0.6 mm 2 mps 749 mmHg 88%
21:00 +29°C° 0.6 mm 2 mps 750 mmHg 91%
22:00 +29°C° 0.6 mm 2 mps 750 mmHg 92%
23:00 +29°C° 0.6 mm 2 mps 750 mmHg 92%

11 August, Tuesday

Time Temperature Precipitation Wind Pressure Humidity
00:00 +28°C° 0.6 mm 2 mps 750 mmHg 92%
01:00 +28°C° 0.6 mm 1 mps 750 mmHg 92%
02:00 +28°C° 0.6 mm 1 mps 749 mmHg 92%
03:00 +28°C° 0.6 mm 1 mps 749 mmHg 92%
04:00 +28°C° 0.7 mm 1 mps 749 mmHg 93%
05:00 +28°C° 0.7 mm 1 mps 749 mmHg 93%
06:00 +28°C° 0.7 mm 2 mps 749 mmHg 93%
07:00 +28°C° 0 mm 2 mps 750 mmHg 91%
08:00 +29°C° 0 mm 2 mps 750 mmHg 89%
09:00 +30°C° 0 mm 2 mps 750 mmHg 87%
10:00 +31°C° 0.1 mm 2 mps 750 mmHg 81%
11:00 +32°C° 0.1 mm 2 mps 750 mmHg 75%
12:00 +35°C° 0.1 mm 2 mps 749 mmHg 69%
13:00 +35°C° 0.2 mm 2 mps 749 mmHg 67%
14:00 +34°C° 0.2 mm 1 mps 748 mmHg 65%
15:00 +35°C° 0.2 mm 1 mps 747 mmHg 63%
16:00 +34°C° 0.2 mm 1 mps 747 mmHg 67%
17:00 +34°C° 0.2 mm 2 mps 747 mmHg 72%
18:00 +32°C° 0.2 mm 2 mps 747 mmHg 77%
19:00 +32°C° 0.2 mm 2 mps 748 mmHg 80%
20:00 +31°C° 0.2 mm 2 mps 749 mmHg 83%
21:00 +30°C° 0.2 mm 2 mps 749 mmHg 86%
22:00 +29°C° 0.4 mm 2 mps 750 mmHg 88%
23:00 +29°C° 0.4 mm 2 mps 750 mmHg 90%

12 August, Wednesday

Time Temperature Precipitation Wind Pressure Humidity
00:00 +29°C° 0.4 mm 2 mps 750 mmHg 92%
01:00 +29°C° 0.5 mm 2 mps 749 mmHg 93%
02:00 +28°C° 0.5 mm 1 mps 749 mmHg 93%
03:00 +28°C° 0.5 mm 1 mps 748 mmHg 94%
04:00 +28°C° 0.1 mm 1 mps 748 mmHg 94%
05:00 +28°C° 0.1 mm 1 mps 748 mmHg 93%
06:00 +28°C° 0.1 mm 1 mps 749 mmHg 93%
07:00 +29°C° 0 mm 1 mps 749 mmHg 90%
08:00 +30°C° 0 mm 2 mps 749 mmHg 87%
09:00 +30°C° 0 mm 2 mps 749 mmHg 84%
10:00 +32°C° 0.1 mm 2 mps 749 mmHg 77%
11:00 +35°C° 0.1 mm 2 mps 749 mmHg 70%
12:00 +36°C° 0.1 mm 2 mps 748 mmHg 63%
13:00 +37°C° 0 mm 2 mps 748 mmHg 61%
14:00 +37°C° 0 mm 2 mps 747 mmHg 59%
15:00 +37°C° 0 mm 1 mps 747 mmHg 57%
16:00 +35°C° 1.9 mm 2 mps 747 mmHg 67%
17:00 +33°C° 1.9 mm 3 mps 747 mmHg 76%
18:00 +29°C° 1.9 mm 4 mps 747 mmHg 85%
19:00 +29°C° 0.3 mm 3 mps 748 mmHg 87%
20:00 +29°C° 0.3 mm 2 mps 749 mmHg 89%
21:00 +28°C° 0.3 mm 1 mps 749 mmHg 91%
22:00 +28°C° 0 mm 1 mps 750 mmHg 91%
23:00 +28°C° 0 mm 1 mps 750 mmHg 91%

13 August, Thursday

Time Temperature Precipitation Wind Pressure Humidity
00:00 +28°C° 0 mm 1 mps 750 mmHg 91%
01:00 +28°C° 0.1 mm 2 mps 750 mmHg 92%
02:00 +28°C° 0.1 mm 2 mps 749 mmHg 92%
03:00 +28°C° 0.1 mm 2 mps 749 mmHg 92%
04:00 +28°C° 0.1 mm 2 mps 749 mmHg 92%
05:00 +28°C° 0.1 mm 2 mps 749 mmHg 92%
06:00 +28°C° 0.1 mm 2 mps 749 mmHg 91%
07:00 +29°C° 0 mm 3 mps 750 mmHg 85%
08:00 +31°C° 0 mm 3 mps 750 mmHg 78%
09:00 +33°C° 0 mm 3 mps 750 mmHg 72%
10:00 +34°C° 0.2 mm 3 mps 750 mmHg 70%
11:00 +35°C° 0.2 mm 3 mps 749 mmHg 68%
12:00 +36°C° 0.2 mm 3 mps 749 mmHg 67%
13:00 +36°C° 0.6 mm 3 mps 748 mmHg 66%
14:00 +36°C° 0.6 mm 3 mps 747 mmHg 65%
15:00 +36°C° 0.6 mm 3 mps 747 mmHg 65%
16:00 +35°C° 1 mm 3 mps 747 mmHg 71%
17:00 +34°C° 1 mm 3 mps 747 mmHg 77%
18:00 +31°C° 1 mm 2 mps 747 mmHg 83%
19:00 +31°C° 0.6 mm 2 mps 748 mmHg 85%
20:00 +30°C° 0.6 mm 2 mps 748 mmHg 87%
21:00 +29°C° 0.6 mm 2 mps 749 mmHg 90%
22:00 +29°C° 0.7 mm 2 mps 749 mmHg 91%
23:00 +29°C° 0.7 mm 2 mps 750 mmHg 92%
Show more